| time (UTC) | temp F | wind direction | speed MPH | gust MPH | rain 1hr in | rain 24hr in | rain mn in | humidity % | barometer mb |
| 20260906125437 | 60 | 121 | 0.0 | 0.0 | 0.00 | 0.00 | 0.00 | 99 | 4106.9 |
| 20260906124932 | 60 | 113 | 0.0 | 0.0 | 0.00 | 0.00 | 0.00 | 99 | 4107.2 |
| 20260906124428 | 59 | 110 | 0.0 | 0.0 | 0.00 | 0.00 | 0.00 | 99 | 4107.6 |
| 20260906123928 | 59 | 111 | 0.0 | 1.0 | 0.00 | 0.00 | 0.00 | 99 | 4106.9 |
| 20260906123427 | 58 | 111 | 0.0 | 0.0 | 0.00 | 0.00 | 0.00 | 99 | 4107.2 |
| 20260906122921 | 58 | 111 | 0.0 | 0.0 | 0.00 | 0.00 | 0.00 | 99 | 4107.2 |
| 20260906122416 | 57 | 111 | 0.0 | 0.0 | 0.00 | 0.00 | 0.00 | 99 | 4107.2 |
| 20260906121913 | 57 | 111 | 1.0 | 1.0 | 0.00 | 0.00 | 0.00 | 99 | 4107.2 |
| 20260906121409 | 57 | 111 | 0.0 | 0.0 | 0.00 | 0.00 | 0.00 | 99 | 4107.2 |
| 20260906120905 | 57 | 111 | 0.0 | 0.0 | 0.00 | 0.00 | 0.00 | 99 | 4106.9 |
| 20260906120400 | 57 | 111 | 0.0 | 0.0 | 0.00 | 0.00 | 0.00 | 99 | 4106.9 |
| 20260906115856 | 57 | 111 | 0.0 | 0.0 | 0.00 | 0.00 | 0.00 | 99 | 4106.9 |
| 20260906115352 | 56 | 111 | 0.0 | 0.0 | 0.00 | 0.00 | 0.00 | 99 | 4106.9 |
| 20260906114851 | 55 | 111 | 0.0 | 0.0 | 0.00 | 0.00 | 0.00 | 99 | 4106.9 |
| 20260906114346 | 55 | 112 | 0.0 | 0.0 | 0.00 | 0.00 | 0.00 | 99 | 4106.9 |
| 20260906113841 | 56 | 112 | 0.0 | 0.0 | 0.00 | 0.00 | 0.00 | 99 | 4106.9 |
| 20260906113340 | 56 | 112 | 0.0 | 0.0 | 0.00 | 0.00 | 0.00 | 99 | 4106.6 |
| 20260906112836 | 55 | 112 | 0.0 | 0.0 | 0.00 | 0.00 | 0.00 | 99 | 4106.6 |
| 20260906112332 | 55 | 112 | 0.0 | 0.0 | 0.00 | 0.00 | 0.00 | 99 | 4106.6 |
| 20260906111831 | 55 | 112 | 0.0 | 0.0 | 0.00 | 0.00 | 0.00 | 99 | 4106.6 |
| 20260906111326 | 56 | 111 | 0.0 | 0.0 | 0.00 | 0.00 | 0.00 | 99 | 4106.9 |
| 20260906110821 | 56 | 111 | 0.0 | 0.0 | 0.00 | 0.00 | 0.00 | 99 | 4106.6 |
| 20260906110317 | 56 | 111 | 0.0 | 0.0 | 0.00 | 0.00 | 0.00 | 99 | 4106.6 |
| 20260906105816 | 56 | 112 | 0.0 | 0.0 | 0.00 | 0.00 | 0.00 | 99 | 4106.6 |
| 20260906105311 | 56 | 112 | 0.0 | 0.0 | 0.00 | 0.00 | 0.00 | 99 | 4106.6 |
| 20260906104807 | 56 | 112 | 0.0 | 0.0 | 0.00 | 0.00 | 0.00 | 99 | 4106.6 |
| 20260906104305 | 57 | 111 | 0.0 | 0.0 | 0.00 | 0.00 | 0.00 | 99 | 4106.6 |
| 20260906103803 | 57 | 111 | 0.0 | 0.0 | 0.00 | 0.00 | 0.00 | 99 | 4106.9 |
| 20260906103257 | 57 | 111 | 0.0 | 0.0 | 0.00 | 0.00 | 0.00 | 99 | 4106.6 |
| 20260906102754 | 57 | 112 | 0.0 | 0.0 | 0.00 | 0.00 | 0.00 | 99 | 4106.6 |
| 20260906102252 | 57 | 112 | 0.0 | 0.0 | 0.00 | 0.00 | 0.00 | 99 | 4106.6 |
| 20260906101747 | 56 | 112 | 0.0 | 0.0 | 0.00 | 0.00 | 0.00 | 99 | 4106.6 |
| 20260906101242 | 56 | 112 | 0.0 | 0.0 | 0.00 | 0.00 | 0.00 | 99 | 4106.6 |
| 20260906100738 | 56 | 112 | 0.0 | 0.0 | 0.00 | 0.00 | 0.00 | 99 | 4106.2 |
| 20260906100237 | 56 | 111 | 0.0 | 0.0 | 0.00 | 0.00 | 0.00 | 99 | 4106.2 |
| 20260906095732 | 56 | 111 | 0.0 | 0.0 | 0.00 | 0.00 | 0.00 | 99 | 4106.2 |
| 20260906095222 | 57 | 111 | 0.0 | 0.0 | 0.00 | 0.00 | 0.00 | 99 | 4106.2 |
| 20260906094721 | 57 | 111 | 0.0 | 0.0 | 0.00 | 0.00 | 0.00 | 99 | 4106.2 |
| 20260906094216 | 57 | 111 | 0.0 | 0.0 | 0.00 | 0.00 | 0.00 | 99 | 4106.2 |
| 20260906093712 | 57 | 111 | 0.0 | 0.0 | 0.00 | 0.00 | 0.00 | 99 | 4106.2 |
| 20260906093207 | 57 | 111 | 0.0 | 0.0 | 0.00 | 0.00 | 0.00 | 99 | 4106.2 |
| 20260906092702 | 57 | 111 | 0.0 | 0.0 | 0.00 | 0.00 | 0.00 | 99 | 4106.2 |
| 20260906092156 | 57 | 111 | 0.0 | 0.0 | 0.00 | 0.00 | 0.00 | 99 | 4106.2 |
| 20260906091653 | 57 | 111 | 0.0 | 0.0 | 0.00 | 0.00 | 0.00 | 99 | 4105.9 |
| 20260906091149 | 56 | 111 | 0.0 | 0.0 | 0.00 | 0.00 | 0.00 | 99 | 4106.2 |
| 20260906090645 | 57 | 111 | 0.0 | 0.0 | 0.00 | 0.00 | 0.00 | 99 | 4106.2 |
| 20260906090144 | 57 | 111 | 0.0 | 0.0 | 0.00 | 0.00 | 0.00 | 99 | 4105.9 |
| 20260906085643 | 57 | 111 | 0.0 | 0.0 | 0.00 | 0.00 | 0.00 | 99 | 4105.6 |
| 20260906085143 | 57 | 111 | 0.0 | 0.0 | 0.00 | 0.00 | 0.00 | 99 | 4105.9 |
| 20260906084637 | 58 | 111 | 0.0 | 0.0 | 0.00 | 0.00 | 0.00 | 99 | 4105.9 |
| 20260906084136 | 58 | 111 | 0.0 | 0.0 | 0.00 | 0.00 | 0.00 | 99 | 4105.6 |
| 20260906083632 | 58 | 111 | 0.0 | 1.0 | 0.00 | 0.00 | 0.00 | 99 | 4105.6 |
| 20260906083127 | 58 | 110 | 0.0 | 0.0 | 0.00 | 0.00 | 0.00 | 99 | 4105.6 |
| 20260906082623 | 58 | 110 | 0.0 | 0.0 | 0.00 | 0.00 | 0.00 | 99 | 4105.6 |
| 20260906082118 | 58 | 109 | 0.0 | 0.0 | 0.00 | 0.00 | 0.00 | 99 | 4105.6 |
| 20260906081614 | 58 | 109 | 1.0 | 1.0 | 0.00 | 0.00 | 0.00 | 99 | 4105.6 |
| 20260906081109 | 58 | 109 | 1.0 | 1.0 | 0.00 | 0.00 | 0.00 | 99 | 4105.6 |
| 20260906080605 | 58 | 112 | 1.0 | 1.0 | 0.00 | 0.00 | 0.00 | 99 | 4105.6 |
| 20260906075555 | 58 | 111 | 1.0 | 1.0 | 0.00 | 0.00 | 0.00 | 99 | 4105.2 |
| 20260906075050 | 58 | 114 | 1.0 | 2.0 | 0.00 | 0.00 | 0.00 | 99 | 4105.6 |
| 20260906074545 | 58 | 116 | 0.0 | 0.0 | 0.00 | 0.00 | 0.00 | 99 | 4105.2 |
| 20260906074043 | 57 | 125 | 1.0 | 1.0 | 0.00 | 0.00 | 0.00 | 99 | 4105.2 |
| 20260906073538 | 57 | 130 | 0.0 | 1.0 | 0.00 | 0.00 | 0.00 | 99 | 4105.2 |
| 20260906073035 | 57 | 136 | 0.0 | 0.0 | 0.00 | 0.00 | 0.00 | 99 | 4105.2 |
| 20260906072529 | 56 | 142 | 0.0 | 0.0 | 0.00 | 0.00 | 0.00 | 99 | 4105.2 |
| 20260906072026 | 57 | 142 | 0.0 | 0.0 | 0.00 | 0.00 | 0.00 | 99 | 4105.2 |
| 20260906071521 | 57 | 142 | 0.0 | 0.0 | 0.00 | 0.00 | 0.00 | 99 | 4105.2 |
| 20260906071016 | 57 | 142 | 0.0 | 0.0 | 0.00 | 0.00 | 0.00 | 99 | 4105.2 |
| 20260906070513 | 58 | 141 | 0.0 | 0.0 | 0.00 | 0.00 | 0.00 | 99 | 4105.6 |
| 20260906070008 | 57 | 142 | 0.0 | 0.0 | 0.00 | 0.00 | 0.00 | 99 | 4105.6 |
| 20260906065508 | 57 | 142 | 0.0 | 0.0 | 0.00 | 0.00 | 0.00 | 99 | 4105.2 |
| 20260906065003 | 57 | 141 | 0.0 | 0.0 | 0.00 | 0.00 | 0.00 | 99 | 4105.6 |
| 20260906064459 | 57 | 141 | 0.0 | 0.0 | 0.00 | 0.00 | 0.00 | 99 | 4105.6 |
| 20260906063954 | 56 | 142 | 0.0 | 0.0 | 0.00 | 0.00 | 0.00 | 99 | 4105.6 |
| 20260906063450 | 56 | 142 | 0.0 | 0.0 | 0.00 | 0.00 | 0.00 | 99 | 4105.2 |
| 20260906062949 | 56 | 142 | 0.0 | 0.0 | 0.00 | 0.00 | 0.00 | 99 | 4105.6 |
| 20260906062445 | 57 | 141 | 0.0 | 0.0 | 0.00 | 0.00 | 0.00 | 99 | 4105.6 |
| 20260906061939 | 57 | 141 | 0.0 | 0.0 | 0.00 | 0.00 | 0.00 | 99 | 4105.6 |
| 20260906061430 | 57 | 141 | 0.0 | 0.0 | 0.00 | 0.00 | 0.00 | 99 | 4105.2 |
| 20260906060929 | 57 | 141 | 0.0 | 0.0 | 0.00 | 0.00 | 0.00 | 99 | 4105.6 |
| 20260906060427 | 57 | 141 | 0.0 | 0.0 | 0.00 | 0.00 | 0.00 | 99 | 4105.6 |
| 20260906055923 | 57 | 141 | 0.0 | 0.0 | 0.00 | 0.00 | 0.00 | 99 | 4105.6 |
| 20260906055419 | 57 | 141 | 0.0 | 0.0 | 0.00 | 0.00 | 0.00 | 99 | 4105.2 |
| 20260906054914 | 58 | 141 | 0.0 | 0.0 | 0.00 | 0.00 | 0.00 | 99 | 4105.6 |
| 20260906054409 | 58 | 141 | 0.0 | 0.0 | 0.00 | 0.00 | 0.00 | 99 | 4105.2 |
| 20260906053905 | 58 | 141 | 0.0 | 0.0 | 0.00 | 0.00 | 0.00 | 99 | 4105.2 |
| 20260906053401 | 58 | 140 | 0.0 | 0.0 | 0.00 | 0.00 | 0.00 | 99 | 4105.2 |
| 20260906052856 | 58 | 140 | 0.0 | 0.0 | 0.00 | 0.00 | 0.00 | 99 | 4105.2 |
| 20260906052352 | 58 | 140 | 0.0 | 0.0 | 0.00 | 0.00 | 0.00 | 99 | 4105.2 |
| 20260906051849 | 59 | 140 | 0.0 | 0.0 | 0.00 | 0.00 | 0.00 | 99 | 4105.2 |
| 20260906051348 | 59 | 141 | 0.0 | 0.0 | 0.00 | 0.00 | 0.00 | 99 | 4105.2 |
| 20260906050845 | 59 | 140 | 0.0 | 0.0 | 0.00 | 0.00 | 0.00 | 99 | 4105.2 |
| 20260906050339 | 59 | 140 | 0.0 | 0.0 | 0.00 | 0.00 | 0.00 | 99 | 4105.2 |
| 20260906045838 | 59 | 141 | 0.0 | 0.0 | 0.00 | 0.00 | 0.00 | 99 | 4105.2 |
| 20260906045332 | 59 | 141 | 0.0 | 0.0 | 0.00 | 0.00 | 0.00 | 99 | 4105.2 |
| 20260906044829 | 59 | 142 | 0.0 | 0.0 | 0.00 | 0.00 | 0.00 | 99 | 4105.2 |
| 20260906044329 | 59 | 142 | 0.0 | 0.0 | 0.00 | 0.00 | 0.00 | 99 | 4105.6 |
| 20260906043826 | 59 | 142 | 0.0 | 0.0 | 0.00 | 0.00 | 0.00 | 99 | 4105.2 |
| 20260906043321 | 59 | 142 | 0.0 | 0.0 | 0.00 | 0.00 | 0.00 | 99 | 4105.2 |
| 20260906042820 | 59 | 142 | 0.0 | 0.0 | 0.00 | 0.00 | 0.00 | 99 | 4104.9 |
| 20260906042319 | 59 | 142 | 0.0 | 0.0 | 0.00 | 0.00 | 0.00 | 99 | 4104.9 |
| 20260906041815 | 59 | 142 | 0.0 | 0.0 | 0.00 | 0.00 | 0.00 | 99 | 4104.9 |
| 20260906041310 | 59 | 142 | 0.0 | 0.0 | 0.00 | 0.00 | 0.00 | 99 | 4104.9 |
| 20260906040805 | 59 | 142 | 0.0 | 0.0 | 0.00 | 0.00 | 0.00 | 99 | 4104.9 |
| 20260906040301 | 59 | 142 | 0.0 | 0.0 | 0.00 | 0.00 | 0.00 | 99 | 4104.9 |
| 20260906035756 | 59 | 142 | 0.0 | 0.0 | 0.00 | 0.00 | 0.00 | 99 | 4104.9 |
| 20260906035251 | 59 | 142 | 0.0 | 0.0 | 0.00 | 0.00 | 0.00 | 99 | 4104.9 |
| 20260906034746 | 60 | 142 | 0.0 | 0.0 | 0.00 | 0.00 | 0.00 | 99 | 4104.9 |
| 20260906034241 | 60 | 142 | 0.0 | 0.0 | 0.00 | 0.00 | 0.00 | 99 | 4104.9 |
| 20260906033737 | 60 | 142 | 0.0 | 0.0 | 0.00 | 0.00 | 0.00 | 99 | 4104.9 |
| 20260906033236 | 60 | 142 | 0.0 | 0.0 | 0.00 | 0.00 | 0.00 | 99 | 4104.9 |
| 20260906032733 | 60 | 142 | 0.0 | 0.0 | 0.00 | 0.00 | 0.00 | 99 | 4104.9 |
| 20260906032232 | 60 | 142 | 0.0 | 0.0 | 0.00 | 0.00 | 0.00 | 99 | 4104.9 |
| 20260906031728 | 60 | 141 | 0.0 | 0.0 | 0.00 | 0.00 | 0.00 | 99 | 4104.9 |
| 20260906031224 | 60 | 141 | 0.0 | 0.0 | 0.00 | 0.00 | 0.00 | 99 | 4104.4 |
| 20260906030723 | 60 | 141 | 0.0 | 0.0 | 0.00 | 0.00 | 0.00 | 99 | 4104.4 |
| 20260906030218 | 60 | 141 | 0.0 | 0.0 | 0.00 | 0.00 | 0.00 | 99 | 4104.4 |
| 20260906025717 | 60 | 141 | 0.0 | 0.0 | 0.00 | 0.00 | 0.00 | 99 | 4104.9 |
| 20260906025212 | 60 | 141 | 0.0 | 0.0 | 0.00 | 0.00 | 0.00 | 99 | 4104.9 |
| 20260906024711 | 60 | 141 | 0.0 | 0.0 | 0.00 | 0.00 | 0.00 | 99 | 4104.4 |
| 20260906024210 | 61 | 141 | 0.0 | 0.0 | 0.00 | 0.00 | 0.00 | 99 | 4104.4 |
| 20260906023706 | 61 | 141 | 0.0 | 0.0 | 0.00 | 0.00 | 0.00 | 99 | 4104.4 |
| 20260906023201 | 61 | 141 | 0.0 | 0.0 | 0.00 | 0.00 | 0.00 | 99 | 4104.4 |
| 20260906022656 | 61 | 141 | 0.0 | 0.0 | 0.00 | 0.00 | 0.00 | 99 | 4104.1 |
| 20260906022152 | 61 | 141 | 0.0 | 0.0 | 0.00 | 0.00 | 0.00 | 98 | 4104.4 |
| 20260906021648 | 60 | 141 | 0.0 | 0.0 | 0.00 | 0.00 | 0.00 | 98 | 4104.4 |
| 20260906021146 | 60 | 141 | 0.0 | 0.0 | 0.00 | 0.00 | 0.00 | 97 | 4104.1 |
| 20260906020641 | 60 | 141 | 0.0 | 0.0 | 0.00 | 0.00 | 0.00 | 96 | 4104.4 |
| 20260906020136 | 60 | 141 | 0.0 | 0.0 | 0.00 | 0.00 | 0.00 | 96 | 4104.4 |
| 20260906015630 | 60 | 141 | 0.0 | 0.0 | 0.00 | 0.00 | 0.00 | 95 | 4104.4 |
| 20260906015129 | 60 | 141 | 0.0 | 0.0 | 0.00 | 0.00 | 0.00 | 95 | 4104.4 |
| 20260906014623 | 60 | 141 | 0.0 | 0.0 | 0.00 | 0.00 | 0.00 | 95 | 4104.4 |
| 20260906014119 | 60 | 141 | 0.0 | 0.0 | 0.00 | 0.00 | 0.00 | 94 | 4104.4 |
| 20260906013614 | 60 | 141 | 0.0 | 0.0 | 0.00 | 0.00 | 0.00 | 94 | 4104.4 |
| 20260906013110 | 61 | 141 | 0.0 | 0.0 | 0.00 | 0.00 | 0.00 | 93 | 4104.4 |
| 20260906012604 | 61 | 141 | 0.0 | 0.0 | 0.00 | 0.00 | 0.00 | 93 | 4104.4 |
| 20260906012059 | 61 | 141 | 0.0 | 0.0 | 0.00 | 0.00 | 0.00 | 92 | 4104.1 |
| 20260906011555 | 61 | 141 | 0.0 | 0.0 | 0.00 | 0.00 | 0.00 | 92 | 4104.4 |
| 20260906011055 | 61 | 141 | 0.0 | 0.0 | 0.00 | 0.00 | 0.00 | 92 | 4104.4 |
| 20260906010550 | 62 | 141 | 0.0 | 0.0 | 0.00 | 0.00 | 0.00 | 91 | 4104.1 |
| 20260906010047 | 62 | 141 | 0.0 | 0.0 | 0.00 | 0.00 | 0.00 | 90 | 4104.4 |
| 20260906005546 | 62 | 141 | 0.0 | 0.0 | 0.00 | 0.00 | 0.00 | 89 | 4104.1 |
| 20260906005045 | 62 | 141 | 0.0 | 0.0 | 0.00 | 0.00 | 0.00 | 89 | 4104.1 |
| 20260906004544 | 63 | 141 | 0.0 | 0.0 | 0.00 | 0.00 | 0.00 | 89 | 4104.4 |
| 20260906004039 | 63 | 141 | 0.0 | 0.0 | 0.00 | 0.00 | 0.00 | 89 | 4104.1 |
| 20260906003534 | 63 | 141 | 0.0 | 0.0 | 0.00 | 0.00 | 0.00 | 90 | 4104.1 |
| 20260906003031 | 64 | 141 | 0.0 | 0.0 | 0.00 | 0.00 | 0.00 | 89 | 4103.8 |
| 20260906002525 | 64 | 141 | 0.0 | 0.0 | 0.00 | 0.00 | 0.00 | 89 | 4103.8 |
| 20260906002020 | 64 | 141 | 0.0 | 0.0 | 0.00 | 0.00 | 0.00 | 89 | 4104.1 |
| 20260906001515 | 65 | 141 | 0.0 | 0.0 | 0.00 | 0.00 | 0.00 | 89 | 4103.8 |
| 20260906001004 | 65 | 142 | 0.0 | 0.0 | 0.00 | 0.00 | 0.00 | 87 | 4103.8 |
| 20260906000500 | 66 | 142 | 0.0 | 0.0 | 0.00 | 0.00 | 0.00 | 87 | 4103.8 |
| 20260905235959 | 66 | 142 | 0.0 | 0.0 | 0.00 | 0.00 | 0.00 | 86 | 4103.8 |
| 20260905235454 | 67 | 142 | 0.0 | 0.0 | 0.00 | 0.00 | 0.00 | 85 | 4103.8 |
| 20260905234949 | 67 | 142 | 0.0 | 0.0 | 0.00 | 0.00 | 0.00 | 83 | 4103.8 |
| 20260905234444 | 68 | 142 | 0.0 | 0.0 | 0.00 | 0.00 | 0.00 | 82 | 4103.8 |
| 20260905233938 | 68 | 142 | 0.0 | 0.0 | 0.00 | 0.00 | 0.00 | 81 | 4103.8 |
| 20260905233434 | 69 | 142 | 0.0 | 0.0 | 0.00 | 0.00 | 0.00 | 81 | 4103.8 |
| 20260905232933 | 69 | 142 | 0.0 | 0.0 | 0.00 | 0.00 | 0.00 | 80 | 4103.8 |
| 20260905232429 | 70 | 142 | 0.0 | 0.0 | 0.00 | 0.00 | 0.00 | 80 | 4104.1 |
| 20260905231925 | 70 | 142 | 0.0 | 0.0 | 0.00 | 0.00 | 0.00 | 79 | 4104.1 |
| 20260905231421 | 71 | 142 | 0.0 | 0.0 | 0.00 | 0.00 | 0.00 | 78 | 4103.8 |
| 20260905230917 | 72 | 143 | 0.0 | 0.0 | 0.00 | 0.00 | 0.00 | 75 | 4103.8 |
| 20260905230414 | 72 | 143 | 0.0 | 0.0 | 0.00 | 0.00 | 0.00 | 74 | 4103.8 |
| 20260905225908 | 73 | 143 | 0.0 | 0.0 | 0.00 | 0.00 | 0.00 | 74 | 4103.8 |
| 20260905225403 | 73 | 144 | 0.0 | 1.0 | 0.00 | 0.00 | 0.00 | 73 | 4104.1 |
| 20260905224858 | 73 | 143 | 0.0 | 0.0 | 0.00 | 0.00 | 0.00 | 75 | 4103.8 |
| 20260905224353 | 73 | 143 | 0.0 | 0.0 | 0.00 | 0.00 | 0.00 | 74 | 4104.1 |
| 20260905223847 | 74 | 145 | 0.0 | 0.0 | 0.00 | 0.00 | 0.00 | 71 | 4104.1 |
| 20260905223346 | 74 | 144 | 0.0 | 0.0 | 0.00 | 0.00 | 0.00 | 73 | 4103.8 |
| 20260905222840 | 74 | 152 | 0.0 | 1.0 | 0.00 | 0.00 | 0.00 | 70 | 4103.8 |
| 20260905222339 | 74 | 167 | 1.0 | 1.0 | 0.00 | 0.00 | 0.00 | 74 | 4103.8 |
| 20260905221835 | 74 | 152 | 1.0 | 1.0 | 0.00 | 0.00 | 0.00 | 71 | 4103.8 |
| 20260905221332 | 73 | 156 | 1.0 | 1.0 | 0.00 | 0.00 | 0.00 | 70 | 4103.8 |
| 20260905220827 | 74 | 157 | 0.0 | 1.0 | 0.00 | 0.00 | 0.00 | 72 | 4103.8 |
| 20260905220323 | 73 | 160 | 1.0 | 2.0 | 0.00 | 0.00 | 0.00 | 71 | 4103.8 |
| 20260905215822 | 74 | 159 | 0.0 | 0.0 | 0.00 | 0.00 | 0.00 | 73 | 4104.1 |
| 20260905215318 | 73 | 167 | 0.0 | 1.0 | 0.00 | 0.00 | 0.00 | 71 | 4103.8 |
| 20260905214815 | 72 | 173 | 2.0 | 2.0 | 0.00 | 0.00 | 0.00 | 82 | 4103.8 |
| 20260905214310 | 72 | 173 | 3.0 | 5.0 | 0.00 | 0.00 | 0.00 | 80 | 4103.4 |
| 20260905213804 | 72 | 173 | 4.0 | 5.0 | 0.00 | 0.00 | 0.00 | 82 | 4103.8 |
| 20260905213301 | 72 | 174 | 3.0 | 5.0 | 0.00 | 0.00 | 0.00 | 80 | 4103.8 |
| 20260905212755 | 71 | 177 | 5.0 | 6.0 | 0.00 | 0.00 | 0.00 | 80 | 4103.4 |
| 20260905212254 | 71 | 170 | 5.0 | 7.0 | 0.00 | 0.00 | 0.00 | 83 | 4103.4 |
| 20260905211749 | 71 | 174 | 5.0 | 6.0 | 0.00 | 0.00 | 0.00 | 79 | 4103.4 |
| 20260905211244 | 71 | 163 | 3.0 | 5.0 | 0.00 | 0.00 | 0.00 | 80 | 4103.4 |
| 20260905210742 | 71 | 168 | 5.0 | 6.0 | 0.00 | 0.00 | 0.00 | 78 | 4103.4 |
| 20260905210241 | 71 | 167 | 3.0 | 3.0 | 0.00 | 0.00 | 0.00 | 80 | 4103.4 |
| 20260905205739 | 70 | 166 | 3.0 | 3.0 | 0.00 | 0.00 | 0.00 | 82 | 4103.4 |
| 20260905205235 | 70 | 165 | 5.0 | 6.0 | 0.00 | 0.00 | 0.00 | 83 | 4103.4 |
| 20260905204734 | 70 | 166 | 3.0 | 3.0 | 0.00 | 0.00 | 0.00 | 82 | 4103.8 |
| 20260905204230 | 70 | 164 | 4.0 | 6.0 | 0.00 | 0.00 | 0.00 | 84 | 4103.4 |
| 20260905203729 | 70 | 166 | 4.0 | 5.0 | 0.00 | 0.00 | 0.00 | 85 | 4103.8 |
| 20260905203225 | 70 | 162 | 4.0 | 5.0 | 0.00 | 0.00 | 0.00 | 85 | 4103.8 |
| 20260905202720 | 70 | 181 | 8.0 | 8.0 | 0.00 | 0.00 | 0.00 | 87 | 4103.4 |
| 20260905202215 | 70 | 169 | 7.0 | 9.0 | 0.00 | 0.00 | 0.00 | 87 | 4103.4 |
| 20260905201711 | 69 | 179 | 7.0 | 8.0 | 0.00 | 0.00 | 0.00 | 87 | 4103.4 |
| 20260905201211 | 69 | 178 | 8.0 | 8.0 | 0.00 | 0.00 | 0.00 | 90 | 4103.4 |
| 20260905200706 | 70 | 174 | 7.0 | 8.0 | 0.00 | 0.00 | 0.00 | 91 | 4103.8 |
| 20260905200202 | 69 | 162 | 6.0 | 9.0 | 0.00 | 0.00 | 0.00 | 86 | 4103.4 |
| 20260905195700 | 70 | 165 | 6.0 | 8.0 | 0.00 | 0.00 | 0.00 | 87 | 4103.8 |
| 20260905195154 | 70 | 172 | 8.0 | 8.0 | 0.00 | 0.00 | 0.00 | 88 | 4103.1 |
| 20260905194650 | 70 | 177 | 8.0 | 9.0 | 0.00 | 0.00 | 0.00 | 88 | 4103.4 |
| 20260905194144 | 69 | 180 | 7.0 | 8.0 | 0.00 | 0.00 | 0.00 | 86 | 4103.8 |
| 20260905193638 | 69 | 167 | 6.0 | 8.0 | 0.00 | 0.00 | 0.00 | 86 | 4103.8 |
| 20260905193133 | 69 | 170 | 9.0 | 9.0 | 0.00 | 0.00 | 0.00 | 89 | 4103.8 |
| 20260905192629 | 69 | 161 | 5.0 | 7.0 | 0.00 | 0.00 | 0.00 | 90 | 4103.8 |
| 20260905192125 | 69 | 173 | 7.0 | 8.0 | 0.00 | 0.00 | 0.00 | 92 | 4104.1 |
| 20260905191624 | 69 | 173 | 7.0 | 7.0 | 0.00 | 0.00 | 0.00 | 90 | 4104.1 |
| 20260905191122 | 69 | 162 | 4.0 | 5.0 | 0.00 | 0.00 | 0.00 | 86 | 4104.1 |
| 20260905190620 | 69 | 171 | 6.0 | 7.0 | 0.00 | 0.00 | 0.00 | 89 | 4104.1 |
| 20260905190115 | 69 | 187 | 5.0 | 6.0 | 0.00 | 0.00 | 0.00 | 92 | 4104.1 |
| 20260905185614 | 69 | 188 | 3.0 | 3.0 | 0.00 | 0.00 | 0.00 | 91 | 4104.1 |
| 20260905185108 | 70 | 190 | 4.0 | 5.0 | 0.00 | 0.00 | 0.00 | 89 | 4104.1 |
| 20260905184603 | 69 | 211 | 5.0 | 6.0 | 0.00 | 0.00 | 0.00 | 93 | 4104.1 |
| 20260905184101 | 70 | 184 | 3.0 | 3.0 | 0.00 | 0.00 | 0.00 | 90 | 4104.1 |
| 20260905183555 | 69 | 189 | 3.0 | 3.0 | 0.00 | 0.00 | 0.00 | 89 | 4104.1 |
| 20260905183051 | 70 | 188 | 3.0 | 5.0 | 0.00 | 0.00 | 0.00 | 90 | 4104.4 |
| 20260905182550 | 69 | 179 | 2.0 | 2.0 | 0.00 | 0.00 | 0.00 | 87 | 4104.1 |
| 20260905182044 | 70 | 180 | 7.0 | 8.0 | 0.00 | 0.00 | 0.00 | 89 | 4104.4 |
| 20260905181539 | 71 | 174 | 8.0 | 9.0 | 0.00 | 0.00 | 0.00 | 81 | 4104.1 |
| 20260905181033 | 71 | 195 | 3.0 | 3.0 | 0.00 | 0.00 | 0.00 | 79 | 4104.1 |
| 20260905180527 | 71 | 203 | 4.0 | 5.0 | 0.00 | 0.00 | 0.00 | 84 | 4104.4 |
| 20260905180023 | 71 | 195 | 2.0 | 2.0 | 0.00 | 0.00 | 0.00 | 83 | 4104.1 |
| 20260905175522 | 72 | 209 | 3.0 | 3.0 | 0.00 | 0.00 | 0.00 | 81 | 4104.1 |
| 20260905175018 | 73 | 212 | 4.0 | 5.0 | 0.00 | 0.00 | 0.00 | 81 | 4104.4 |
| 20260905174513 | 75 | 188 | 2.0 | 3.0 | 0.00 | 0.00 | 0.00 | 73 | 4104.4 |
| 20260905174009 | 77 | 190 | 3.0 | 3.0 | 0.00 | 0.00 | 0.00 | 68 | 4104.1 |
| 20260905173505 | 77 | 187 | 0.0 | 0.0 | 0.00 | 0.00 | 0.00 | 66 | 4104.4 |
| 20260905173000 | 76 | 187 | 0.0 | 0.0 | 0.00 | 0.00 | 0.00 | 65 | 4104.4 |
| 20260905172458 | 77 | 144 | 1.0 | 1.0 | 0.00 | 0.00 | 0.00 | 66 | 4104.1 |
| 20260905171954 | 76 | 185 | 1.0 | 2.0 | 0.00 | 0.00 | 0.00 | 68 | 4104.4 |
| 20260905171450 | 76 | 170 | 1.0 | 2.0 | 0.00 | 0.00 | 0.00 | 68 | 4104.4 |
| 20260905170946 | 75 | 141 | 2.0 | 2.0 | 0.00 | 0.00 | 0.00 | 69 | 4104.4 |
| 20260905170442 | 75 | 177 | 1.0 | 2.0 | 0.00 | 0.00 | 0.00 | 69 | 4104.4 |
| 20260905165941 | 75 | 130 | 0.0 | 1.0 | 0.00 | 0.00 | 0.00 | 72 | 4104.4 |
| 20260905165436 | 75 | 132 | 1.0 | 2.0 | 0.00 | 0.00 | 0.00 | 70 | 4104.4 |
| 20260905164932 | 75 | 144 | 1.0 | 2.0 | 0.00 | 0.00 | 0.00 | 71 | 4104.9 |
| 20260905164426 | 75 | 133 | 0.0 | 1.0 | 0.00 | 0.00 | 0.00 | 72 | 4104.9 |
| 20260905163921 | 74 | 157 | 2.0 | 2.0 | 0.00 | 0.00 | 0.00 | 73 | 4104.9 |
| 20260905163418 | 75 | 133 | 1.0 | 1.0 | 0.00 | 0.00 | 0.00 | 71 | 4104.9 |
| 20260905162914 | 76 | 176 | 2.0 | 3.0 | 0.00 | 0.00 | 0.00 | 71 | 4104.9 |
| 20260905162408 | 75 | 155 | 0.0 | 1.0 | 0.00 | 0.00 | 0.00 | 73 | 4104.9 |
| 20260905161903 | 75 | 154 | 1.0 | 2.0 | 0.00 | 0.00 | 0.00 | 75 | 4104.4 |
| 20260905161403 | 74 | 152 | 1.0 | 2.0 | 0.00 | 0.00 | 0.00 | 76 | 4104.9 |
| 20260905160901 | 73 | 139 | 2.0 | 3.0 | 0.00 | 0.00 | 0.00 | 77 | 4104.9 |
| 20260905160354 | 73 | 141 | 2.0 | 2.0 | 0.00 | 0.00 | 0.00 | 78 | 4104.9 |
| 20260905155849 | 73 | 127 | 2.0 | 2.0 | 0.00 | 0.00 | 0.00 | 79 | 4104.9 |
| 20260905155343 | 72 | 119 | 3.0 | 3.0 | 0.00 | 0.00 | 0.00 | 83 | 4104.9 |
| 20260905154842 | 71 | 143 | 0.0 | 1.0 | 0.00 | 0.00 | 0.00 | 82 | 4104.9 |
| 20260905154338 | 72 | 141 | 1.0 | 1.0 | 0.00 | 0.00 | 0.00 | 84 | 4104.9 |
| 20260905153833 | 73 | 139 | 2.0 | 2.0 | 0.00 | 0.00 | 0.00 | 81 | 4104.4 |
| 20260905153330 | 72 | 135 | 1.0 | 1.0 | 0.00 | 0.00 | 0.00 | 83 | 4104.4 |
| 20260905152829 | 73 | 151 | 1.0 | 2.0 | 0.00 | 0.00 | 0.00 | 83 | 4104.4 |
| 20260905152328 | 73 | 142 | 0.0 | 1.0 | 0.00 | 0.00 | 0.00 | 80 | 4104.1 |
| 20260905151824 | 74 | 134 | 2.0 | 3.0 | 0.00 | 0.00 | 0.00 | 81 | 4104.4 |
| 20260905151319 | 73 | 99 | 1.0 | 1.0 | 0.00 | 0.00 | 0.00 | 82 | 4104.4 |
| 20260905150819 | 73 | 130 | 1.0 | 1.0 | 0.00 | 0.00 | 0.00 | 81 | 4104.4 |
| 20260905150313 | 73 | 133 | 0.0 | 0.0 | 0.00 | 0.00 | 0.00 | 83 | 4104.4 |
| 20260905145811 | 72 | 141 | 1.0 | 2.0 | 0.00 | 0.00 | 0.00 | 82 | 4104.4 |
| 20260905145311 | 73 | 123 | 1.0 | 2.0 | 0.00 | 0.00 | 0.00 | 84 | 4104.1 |
| 20260905144810 | 72 | 121 | 0.0 | 0.0 | 0.00 | 0.00 | 0.00 | 86 | 4104.1 |
| 20260905144306 | 72 | 154 | 1.0 | 1.0 | 0.00 | 0.00 | 0.00 | 84 | 4104.1 |
| 20260905143804 | 72 | 124 | 0.0 | 0.0 | 0.00 | 0.00 | 0.00 | 85 | 4103.8 |
| 20260905143259 | 72 | 116 | 0.0 | 0.0 | 0.00 | 0.00 | 0.00 | 86 | 4103.8 |
| 20260905142757 | 71 | 152 | 1.0 | 2.0 | 0.00 | 0.00 | 0.00 | 86 | 4103.8 |
| 20260905142252 | 71 | 134 | 0.0 | 0.0 | 0.00 | 0.00 | 0.00 | 91 | 4103.8 |
| 20260905141748 | 71 | 116 | 0.0 | 0.0 | 0.00 | 0.00 | 0.00 | 89 | 4103.8 |
| 20260905141244 | 70 | 138 | 1.0 | 1.0 | 0.00 | 0.00 | 0.00 | 89 | 4103.8 |
| 20260905140739 | 69 | 135 | 1.0 | 1.0 | 0.00 | 0.00 | 0.00 | 93 | 4103.8 |
| 20260905140233 | 69 | 93 | 2.0 | 2.0 | 0.00 | 0.00 | 0.00 | 92 | 4103.4 |
| 20260905135732 | 69 | 114 | 0.0 | 0.0 | 0.00 | 0.00 | 0.00 | 94 | 4103.8 |
| 20260905135229 | 68 | 109 | 0.0 | 0.0 | 0.00 | 0.00 | 0.00 | 96 | 4103.8 |
| 20260905134727 | 68 | 128 | 0.0 | 1.0 | 0.00 | 0.00 | 0.00 | 96 | 4103.8 |
| 20260905134226 | 67 | 94 | 0.0 | 0.0 | 0.00 | 0.00 | 0.00 | 98 | 4103.8 |
| 20260905133721 | 66 | 96 | 0.0 | 0.0 | 0.00 | 0.00 | 0.00 | 99 | 4103.4 |
| 20260905133217 | 65 | 111 | 2.0 | 2.0 | 0.00 | 0.00 | 0.00 | 99 | 4103.8 |
| 20260905132716 | 64 | 110 | 0.0 | 0.0 | 0.00 | 0.00 | 0.00 | 99 | 4103.8 |
| 20260905132212 | 64 | 108 | 0.0 | 0.0 | 0.00 | 0.00 | 0.00 | 99 | 4103.8 |
| 20260905131706 | 63 | 119 | 0.0 | 0.0 | 0.00 | 0.00 | 0.00 | 99 | 4103.4 |
| 20260905131202 | 63 | 101 | 1.0 | 2.0 | 0.00 | 0.00 | 0.00 | 99 | 4103.8 |
| 20260905130656 | 62 | 117 | 0.0 | 0.0 | 0.00 | 0.00 | 0.00 | 99 | 4103.8 |
| 20260905130155 | 62 | 113 | 0.0 | 0.0 | 0.00 | 0.00 | 0.00 | 99 | 4103.8 |